COSMOS 1721

Satellite information

Favourite Embed

Satellite Type and Status

PAYLOADIN ORBIT

Key statistics

Satellite COSMOS 1721 at a glance.

Uptime

14589

Days in orbit

Revolutions

≈ 12.5

Per day

Orbit

LEO

Low Earth Orbit

Inclination

74.0

Latest

Satellite identification and parameters

Extended collection of information and parameters for COSMOS 1721.

Object identification

Identified? True

Debris? False

Object name: COSMOS 1721

International designator: 1986-002F

Object number (NORAD): 16454

Object ID (CCSDS): 16454

Country: COMMONWEALTH OF INDEPENDENT STATES (CIS)

Current information (Y/N): Y

RCS size: MEDIUM

Orbital parameters

Period: 114.981 minutes

Inclination: 73.9899 deg

SMA: 7832.683 km

Apoapsis: 1482.34 km

Periapsis: 1426.756 km

RAAN: 81.0385 deg

Eccentricy: 0.00354821

Argument of periapsis: 120.6152 deg

Mean anomaly: 309.7773 deg

Mean motion: 12.52382414 rev/day

Mean motion (dot): -0.00000019 rev/day2

B* drag term: -0.00002080757 1/REarth

Two-line elements (TLE)

Creation date: Dec. 18, 2025, 8:02 p.m.

Reference frame: TEME

Reference center: EARTH

Epoch: Dec. 18, 2025, 3:46 p.m. UTC

TLE line 0: 0 COSMOS 1721

TLE line 1: 1 16454U 86002F 25352.65750299 -.00000019 00000-0 -20808-4 0 9990

TLE line 2: 2 16454 73.9899 81.0385 0035482 120.6152 309.7773 12.52382414826106

Live tracking on map

Real-time ground track for satellite COSMOS 1721.

In-orbit conjunctions

A list of the most updated potential collisions computed for object COSMOS 1721.

Target Orbit TCA Probability of collision Miss distance Type
THORAD DELTA 1 DEB SSO 2025-01-07 18:28:21 0.0005787253 247.0 (m) DEBRIS

Associated space launch

Military communications satellites

COSMOS 1721 was lifted into orbit during the mission ‘Kosmos-3M | Strela-1M 297-304’, on board a Kosmos-3M space rocket.

The launch took place on Jan. 9, 1986, 2:48 a.m. from 132/2.

For more information about the launch, click the button.

Launch to space Kosmos-3M | Strela-1M 297-304
Kosmos-3M | Strela-1M 297-304

Agency: N/A

Status: Launch Successful

Launch date: Jan. 9, 1986, 2:48 a.m. UTC

Rocket: Kosmos-3M

Launch pad: 132/2

Location: Plesetsk Cosmodrome, Russian Federation

...

Latest news about this satellite

There are no fresh news available about this satellite. Check back as we update our databases every day.


Newsletter sign-up

Weekly statistics, charts and insights to help you stay on top of the space industry.